Regional Weather Roundup
Issued by NWS

Home | Current Version | Previous Version | Graphics & Text | Print | Product List | Glossary On
Versions: 1 2 3 4 5 6 7 8 9 10 11 12 13 14 15 16 17 18 19 20 21 22 23 24 25 26 27 28 29 30 31 32 33 34 35 36 37 38 39 40 41 42 43 44 45 46 47 48 49 50
000
ASUS45 KBOU 232210
RWRCO

WEATHER ROUNDUP FOR COLORADO
NATIONAL WEATHER SERVICE DENVER/BOULDER CO
300 PM MST FRI FEB 23 2018

NOTE: "FAIR" INDICATES FEW OR NO CLOUDS BELOW 12000 FEET WITH NO
SIGNIFICANT WEATHER AND/OR OBSTRUCTIONS TO VISIBILITY.

COZ001>005-013-030-031-232300-
...NORTHWEST COLORADO...

CITY           SKY/WX    TMP DP  RH WIND       PRES   REMARKS
CRAIG          FAIR      33  11  39 SW14      29.84F WCI  23
HAYDEN         FAIR      30  16  56 W17       29.83F WCI  18
MEEKER         FAIR      31  14  49 S13       29.83F WCI  21
RANGELY        MOCLDY    32  23  70 W13G18    29.87R WCI  22
RABBIT EARS PA MOCLDY    18   5  57 S9G25     29.76F WCI   6
STEAMBOAT SPGS FAIR      31  10  40 S12       29.82S WCI  22
WALDEN         CLOUDY    27   3  36 SW15G21   29.82R WCI  15
$$

COZ006>008-011-232300-
...WEST CENTRAL VALLEYS...

CITY           SKY/WX    TMP DP  RH WIND       PRES   REMARKS
GRAND JUNCTION CLOUDY    36  25  64 NW9       29.90S
MONTROSE       CLOUDY    31  22  69 NW17      29.91R WCI  19
EAGLE          FAIR      35  11  36 W10G17    29.84  WCI  27
RIFLE          LGT SNOW  28  24  85 W13       29.90R VSB 3/4 WCI  17
DELTA          NOT AVBL
NUCLA          NOT AVBL
$$

COZ017>023-064>068-232300-
...SOUTHWEST COLORADO...

CITY           SKY/WX    TMP DP  RH WIND       PRES   REMARKS
DURANGO        CLOUDY    33  19  56 SW8       29.90F WCI  26
CORTEZ         CLOUDY    32  25  75 NW17      29.91S WCI  21
PAGOSA SPRINGS NOT AVBL
TELLURIDE      NOT AVBL
WOLF CREEK PAS CLOUDY     9   9 100 S26G37    29.83F WCI -13
$$

COZ009-010-012-014-032>034-037-058>063-232300-
...CENTRAL COLORADO...

CITY           SKY/WX    TMP DP  RH WIND       PRES   REMARKS
ASPEN          PTSUNNY   30   8  39 SE8       29.79F WCI  22
BUENA VISTA    NOT AVBL
COPPER MTN     PTSUNNY   18   0  45 S21G26    29.77S WCI   1
BERTHOUD PASS  CLOUDY    10   0  61 W18G29    29.75S WCI  -8
COTTONWOOD PAS FAIR      32  -2  23 SW16      29.78F WCI  21
GUNNISON       FAIR      33   7  33 SW7       29.81F WCI  27
GRANBY         CLOUDY    27   5  39 W9        29.82F WCI  18
KREMMLING      FAIR      37   9  30 CALM      29.83F
LEADVILLE      CLOUDY    19   4  51 VRB5      29.77F WCI  12
MONARCH PASS   SNOW      12   9  85 SW40G61   29.85F VSB<1/4 WCI -12
SALIDA         NOT AVBL
SUNLIGHT       LGT SNOW  14  10  85 SW6       29.79F WCI   5
WILKERSON PASS FAIR      23   3  42 SW13G28   29.80F WCI  11
$$

COZ069>075-232300-
...SAN LUIS VALLEY/SANGRE DE CRISTO MOUNTAINS...

CITY           SKY/WX    TMP DP  RH WIND       PRES   REMARKS
ALAMOSA        FAIR      40   5  23 SW28G43   29.86F
DEL NORTE      FAIR      33   9  36 W20G31    29.86S WCI  22
LA VETA PASS   FAIR      34   9  35 S24G38    29.95F WCI  21
SAGUACHE       FAIR      34   5  29 S22G29    29.85F WCI  22
$$

COZ035-036-038>040-232300-
...NORTHERN COLORADO FRONT RANGE...

CITY           SKY/WX    TMP DP  RH WIND       PRES   REMARKS
DENVER INTL AP FAIR      32  24  72 N18       29.89F HAZE    WCI  20
AURORA         MOSUNNY   29  27  90 NW17      29.88F FOG     WCI  17
FRONT RANGE AP PTSUNNY   39  23  52 E12       29.89F
ERIE MUNI ARPT CLOUDY    27  22  79 N8        30.00S HAZE    WCI  19
BOULDER MUN AP FAIR      30  19  64 N7        29.94S HAZE    WCI  23
CENTENNIAL     FAIR      28  23  81 NW14      29.88S WCI  17
BROOMFIELD     CLOUDY    27  21  80 N15       29.91F WCI  15
FORT COLLINS   CLOUDY    27  20  75 NE5       29.97F HAZE    WCI  22
LONGMONT       NOT AVBL
$$

COZ041-046-047-076>085-087-088-232300-
...PIKES PEAK/PALMER DIVIDE AND SOUTHERN FOOTHILLS...

CITY           SKY/WX    TMP DP  RH WIND       PRES   REMARKS
COLO. SPRINGS  FAIR      37  16  42 S16       29.88F
A. F. ACADEMY  FAIR      36  13  38 S13G21    29.85F
SCHRIEVER AFB  NOT AVBL
CHEYENNE MTN   PTSUNNY   31  17  56 SE12G20   29.81F WCI  21
ELLICOTT         N/A    N/A N/A N/A SE10      29.88F
FALCON         NOT AVBL
FORT CARSON    FAIR      38  15  39 SE8       29.88F
LIMON          FAIR      36  16  44 SE17G24   29.92F
MONUMENT HILL  FAIR      36  12  38 S17G28    29.85F
CANON CITY     MOSUNNY   41  19  42 E12       29.88F
WALSENBURG     NOT AVBL
TRINIDAD       FAIR      41  19  41 NE17      29.84F
$$

COZ042>045-048>051-090-091-232300-
...NORTHEAST COLORADO...

CITY           SKY/WX    TMP DP  RH WIND       PRES   REMARKS
GREELEY ARPT   FAIR      29  22  75 NW9       29.97F WCI  20
AKRON          FAIR      35  21  56 SE18      29.96F WCI  24
BURLINGTON     FAIR      34  25  69 SE13      30.01F WCI  25
WRAY           NOT AVBL
YUMA           NOT AVBL
STERLING       FAIR      37  19  48 SE12      29.99F
HOLYOKE        FAIR      37  21  52 E13       30.06S
FORT MORGAN    NOT AVBL
$$

COZ086-089-092>099-232300-
...SOUTHEAST COLORADO...

CITY           SKY/WX    TMP DP  RH WIND       PRES   REMARKS
PUEBLO         FAIR      35  19  52 E12       29.91F WCI  27
LA JUNTA       FAIR      34  23  64 E20G25    29.95F WCI  23
LAMAR          CLOUDY    32  23  69 SE16      30.00F WCI  21
SPRINGFIELD      N/A     38  25  59 SE16G24   29.95F
$$



USA.gov is the U.S. government's official web portal to all federal, state and local government web resources and services.